GW1125 Weather Reports


time (UTC)temp
F
wind
direction
speed
knots
gust
knots
rain 1hr
in
rain 24hr
in
rain mn
in
humidity
%
barometer
mb
20260508231617 63 65 0.0 1.7 0.00 0.00 0.00 52 1020.0
20260508231117 64 0.0 0.0 0.00 0.00 0.00 52 1020.1
20260508230657 62 0.0 0.0 0.00 0.00 0.00 54 1020.2
20260508230117 61 238 0.9 2.6 0.00 0.00 0.00 54 1020.3
20260508225617 61 101 0.0 1.7 0.00 0.00 0.00 55 1020.2
20260508225117 62 102 0.0 0.9 0.00 0.00 0.00 54 1020.2
20260508224637 62 137 0.9 2.6 0.00 0.00 0.00 52 1020.3
20260508224118 62 83 0.0 0.9 0.00 0.00 0.00 52 1020.4
20260508223637 64 348 0.0 5.2 0.00 0.00 0.00 48 1020.4
20260508223117 62 142 0.0 1.7 0.00 0.00 0.00 53 1020.3
20260508222617 63 103 0.9 1.7 0.00 0.00 0.00 52 1020.2
20260508222117 62 131 1.7 5.2 0.00 0.00 0.00 52 1020.3
20260508221637 62 116 0.9 1.7 0.00 0.00 0.00 54 1020.2
20260508221117 62 167 1.7 2.6 0.00 0.00 0.00 54 1020.2
20260508220617 62 83 1.7 3.5 0.00 0.00 0.00 52 1020.1
20260508220117 62 87 0.0 0.9 0.00 0.00 0.00 55 1020.2
20260508215637 62 92 0.0 0.9 0.00 0.00 0.00 55 1020.3
20260508215118 61 308 0.9 5.2 0.00 0.00 0.00 55 1020.4
20260508214637 62 135 0.0 0.9 0.00 0.00 0.00 53 1020.2
20260508214117 63 98 0.9 2.6 0.00 0.00 0.00 54 1020.3
20260508213617 61 160 1.7 2.6 0.00 0.00 0.00 53 1020.4
20260508213117 62 90 0.9 2.6 0.00 0.00 0.00 54 1020.3
20260508212617 60 108 0.9 3.5 0.00 0.00 0.00 56 1020.4
20260508212137 61 105 1.7 2.6 0.00 0.00 0.00 55 1020.5
20260508211636 62 109 0.0 0.9 0.00 0.00 0.00 55 1020.3
20260508211157 62 97 1.7 2.6 0.00 0.00 0.00 53 1020.4
20260508210618 62 144 0.9 3.5 0.00 0.00 0.00 55 1020.3
20260508210117 61 126 0.9 1.7 0.00 0.00 0.00 56 1020.1
20260508205617 61 148 1.7 6.1 0.00 0.00 0.00 53 1020.0
20260508205117 62 93 0.9 2.6 0.00 0.00 0.00 56 1020.2
20260508204617 61 84 0.9 2.6 0.00 0.00 0.00 58 1020.0
20260508204117 62 135 1.7 2.6 0.00 0.00 0.00 55 1020.2
20260508203617 60 127 1.7 5.2 0.00 0.00 0.00 55 1020.0
20260508203117 60 141 0.0 0.9 0.00 0.00 0.00 58 1020.1
20260508202617 60 140 0.9 1.7 0.00 0.00 0.00 57 1020.1
20260508202117 60 82 0.9 3.5 0.00 0.00 0.00 59 1020.1
20260508201618 60 101 0.9 2.6 0.00 0.00 0.00 59 1020.1
20260508201137 59 145 0.9 3.5 0.00 0.00 0.00 58 1020.0
20260508200617 59 117 0.9 2.6 0.00 0.00 0.00 60 1020.0
20260508200257 59 115 0.9 2.6 0.00 0.00 0.00 62 1020.1
20260508195617 58 111 0.9 1.7 0.00 0.00 0.00 61 1020.1
20260508195117 58 130 1.7 3.5 0.00 0.00 0.00 59 1019.9
20260508194637 58 110 0.9 0.9 0.00 0.00 0.00 61 1020.1
20260508194118 58 135 0.9 2.6 0.00 0.00 0.00 62 1019.9
20260508193638 57 113 0.9 1.7 0.00 0.00 0.00 62 1020.0
20260508193118 57 116 1.7 5.2 0.00 0.00 0.00 63 1020.0
20260508192617 57 0.0 0.0 0.00 0.00 0.00 64 1020.2
20260508192117 58 84 0.0 1.7 0.00 0.00 0.00 62 1020.0
20260508191617 58 118 0.0 1.7 0.00 0.00 0.00 64 1020.2
20260508191117 57 94 0.0 0.9 0.00 0.00 0.00 66 1020.2
20260508190637 56 96 0.0 0.9 0.00 0.00 0.00 66 1020.2
20260508190117 56 106 0.9 2.6 0.00 0.00 0.00 67 1020.3
20260508185617 56 91 0.9 2.6 0.00 0.00 0.00 67 1020.1
20260508185118 56 85 0.9 0.9 0.00 0.00 0.00 68 1020.0
20260508184617 55 123 0.9 2.6 0.00 0.00 0.00 69 1020.1
20260508184117 54 101 0.0 0.9 0.00 0.00 0.00 72 1020.0
20260508183637 54 145 0.9 6.1 0.00 0.00 0.00 71 1020.3
20260508183117 54 115 0.9 3.5 0.00 0.00 0.00 72 1020.2
20260508182617 54 112 0.0 0.9 0.00 0.00 0.00 74 1020.1
20260508182117 54 177 0.9 2.6 0.00 0.00 0.00 72 1020.0
20260508181617 54 107 0.0 1.7 0.00 0.00 0.00 72 1020.0
20260508181117 54 141 1.7 2.6 0.00 0.00 0.00 72 1019.8
20260508180617 54 96 0.0 1.7 0.00 0.00 0.00 74 1020.0
20260508180217 54 122 0.0 1.7 0.00 0.00 0.00 73 1019.7
20260508175638 54 0.0 0.0 0.00 0.00 0.00 75 1019.6
20260508175117 54 146 0.9 2.6 0.00 0.00 0.00 74 1019.8
20260508174617 54 131 2.6 5.2 0.00 0.00 0.00 73 1019.6
20260508174117 54 165 0.9 1.7 0.00 0.00 0.00 75 1019.7
20260508173617 54 127 0.0 1.7 0.00 0.00 0.00 75 1019.6
20260508173117 53 0.0 0.0 0.00 0.00 0.00 77 1019.5
20260508172617 54 115 0.9 1.7 0.00 0.00 0.00 75 1019.2
20260508172138 54 156 1.7 2.6 0.00 0.00 0.00 75 1019.2
20260508171617 55 164 0.9 5.2 0.00 0.00 0.00 74 1019.1
20260508171117 54 0.0 0.0 0.00 0.00 0.00 77 1019.1
20260508170617 53 112 0.9 0.9 0.00 0.00 0.00 76 1019.1
20260508170117 53 99 0.0 0.9 0.00 0.00 0.00 78 1018.9
20260508165657 52 0.0 0.0 0.00 0.00 0.00 78 1018.9
20260508165117 52 0.0 0.0 0.00 0.00 0.00 80 1018.9
20260508164617 52 0.0 0.0 0.00 0.00 0.00 80 1018.9
20260508164117 52 0.0 0.0 0.00 0.00 0.00 80 1018.9
20260508163638 52 108 0.0 0.9 0.00 0.00 0.00 79 1018.9
20260508163117 52 0.0 0.0 0.00 0.00 0.00 80 1018.8
20260508162657 51 0.0 0.0 0.00 0.00 0.00 80 1018.8
20260508162117 52 117 0.9 2.6 0.00 0.00 0.00 79 1018.7
20260508161617 52 140 1.7 2.6 0.00 0.00 0.00 80 1018.7
20260508161117 52 106 0.0 0.9 0.00 0.00 0.00 81 1018.7
20260508160617 52 116 0.0 0.9 0.00 0.00 0.00 82 1018.7
20260508160117 52 76 0.0 0.9 0.00 0.00 0.00 81 1018.9
20260508155617 52 0.0 0.0 0.00 0.00 0.00 82 1018.9
20260508155118 52 0.0 0.0 0.00 0.00 0.00 82 1019.0
20260508154618 51 0.0 0.0 0.00 0.00 0.00 83 1018.9
20260508154117 51 0.0 0.0 0.00 0.00 0.00 82 1018.8
20260508153617 51 96 0.0 0.9 0.00 0.00 0.00 83 1019.1
20260508153117 50 0.0 0.0 0.00 0.00 0.00 85 1019.0
20260508152617 51 156 0.9 3.5 0.00 0.00 0.00 85 1019.2
20260508152117 50 117 0.0 1.7 0.00 0.00 0.00 86 1019.2
20260508151617 50 0.0 0.0 0.00 0.00 0.00 88 1019.2
20260508151117 50 139 0.0 0.9 0.00 0.00 0.00 88 1019.2
20260508150617 50 0.0 0.0 0.00 0.00 0.00 88 1019.1
20260508150137 50 0.0 0.0 0.00 0.00 0.00 88 1019.0
20260508145617 50 111 0.9 1.7 0.00 0.00 0.00 88 1019.0
20260508145117 49 0.0 0.0 0.00 0.00 0.00 89 1019.1
20260508144617 49 102 0.0 0.9 0.00 0.00 0.00 90 1019.0
20260508144117 49 0.0 0.0 0.00 0.00 0.00 90 1018.9
20260508143617 49 0.0 0.0 0.00 0.00 0.00 90 1018.9
20260508143117 49 154 0.9 1.7 0.00 0.00 0.00 90 1018.7
20260508142617 49 0.0 0.0 0.00 0.00 0.00 90 1018.7
20260508142116 49 118 0.9 1.7 0.00 0.00 0.00 90 1018.6
20260508141617 49 0.0 0.0 0.00 0.00 0.00 91 1018.5
20260508141137 49 0.0 0.0 0.00 0.00 0.00 91 1018.4
20260508140617 48 148 0.0 1.7 0.00 0.00 0.00 92 1018.3
20260508140117 48 106 0.0 0.9 0.00 0.00 0.00 92 1018.2
20260508135617 48 0.0 0.0 0.00 0.00 0.00 92 1018.0
20260508135117 48 0.0 0.0 0.00 0.00 0.00 92 1018.1
20260508134617 48 109 0.0 0.9 0.00 0.00 0.00 92 1017.9
20260508134117 48 0.0 0.0 0.00 0.00 0.00 92 1017.8
20260508133617 48 0.0 0.0 0.00 0.00 0.00 92 1017.7
20260508133118 48 0.0 0.0 0.00 0.00 0.00 93 1017.8
20260508132617 48 103 0.0 0.9 0.00 0.00 0.00 92 1017.6
20260508132118 48 0.0 0.0 0.00 0.00 0.00 93 1017.6
20260508131617 48 0.0 0.0 0.00 0.00 0.00 93 1017.5
20260508131117 48 0.0 0.0 0.00 0.00 0.00 93 1017.4
20260508130637 48 0.0 0.0 0.00 0.00 0.00 93 1017.4
20260508130157 47 0.0 0.0 0.00 0.00 0.00 94 1017.3
20260508125717 47 0.0 0.0 0.00 0.00 0.00 94 1017.2
20260508125117 47 0.0 0.0 0.00 0.00 0.00 94 1017.2
20260508124637 47 0.0 0.0 0.00 0.00 0.00 94 1017.2
20260508124117 47 0.0 0.0 0.00 0.00 0.00 94 1017.2
20260508123617 47 0.0 0.0 0.00 0.00 0.00 93 1017.1
20260508123117 47 0.0 0.0 0.00 0.00 0.00 93 1017.1
20260508122637 48 0.0 0.0 0.00 0.00 0.00 93 1017.1
20260508122117 48 0.0 0.0 0.00 0.00 0.00 93 1017.0
20260508121617 48 0.0 0.0 0.00 0.00 0.00 93 1016.8
20260508121117 48 0.0 0.0 0.00 0.00 0.00 93 1016.8
20260508120616 48 0.0 0.0 0.00 0.00 0.00 93 1016.9
20260508120137 48 0.0 0.0 0.00 0.00 0.00 93 1016.6
20260508115638 48 0.0 0.0 0.00 0.00 0.00 92 1016.7
20260508115118 48 0.0 0.0 0.00 0.00 0.00 92 1016.6
20260508114617 48 0.0 0.0 0.00 0.00 0.00 93 1016.7
20260508114117 48 0.0 0.0 0.00 0.00 0.00 92 1016.6
20260508113617 48 0.0 0.0 0.00 0.00 0.00 93 1016.6
20260508113117 48 0.0 0.0 0.00 0.00 0.00 93 1016.5
20260508112617 48 0.0 0.0 0.00 0.00 0.00 93 1016.3
20260508112117 48 0.0 0.0 0.00 0.00 0.00 94 1016.5
20260508111618 48 0.0 0.0 0.00 0.00 0.00 94 1016.5
20260508111117 48 0.0 0.0 0.00 0.00 0.00 94 1016.5
20260508110618 48 0.0 0.0 0.00 0.00 0.00 94 1016.4
20260508110118 48 0.0 0.0 0.00 0.00 0.00 94 1016.3
20260508105617 48 0.0 0.0 0.00 0.00 0.00 95 1016.2
20260508105117 48 0.0 0.0 0.00 0.00 0.00 95 1016.0
20260508104617 48 0.0 0.0 0.00 0.00 0.00 95 1016.0
20260508104117 48 0.0 0.0 0.00 0.00 0.00 95 1016.2
20260508103617 48 0.0 0.0 0.00 0.00 0.00 95 1016.2
20260508103117 48 0.0 0.0 0.00 0.00 0.00 95 1016.0
20260508102617 48 0.0 0.0 0.00 0.00 0.00 96 1016.0
20260508102117 47 0.0 0.0 0.00 0.00 0.00 96 1015.9
20260508101617 47 0.0 0.0 0.00 0.00 0.00 96 1015.9
20260508101157 47 0.0 0.0 0.00 0.00 0.00 97 1015.9
20260508100617 47 0.0 0.0 0.00 0.00 0.00 97 1015.8
20260508100117 47 0.0 0.0 0.00 0.00 0.00 96 1015.8
20260508095657 47 0.0 0.0 0.00 0.00 0.00 96 1015.8
20260508095137 47 0.0 0.0 0.00 0.00 0.00 96 1015.7
20260508094637 47 0.0 0.0 0.00 0.00 0.00 96 1015.7
20260508094137 47 0.0 0.0 0.00 0.00 0.00 96 1015.8
20260508093617 47 0.0 0.0 0.00 0.00 0.00 95 1015.9
20260508093117 47 0.0 0.0 0.00 0.00 0.00 95 1015.9
20260508092617 47 0.0 0.0 0.00 0.00 0.00 95 1015.9
20260508092117 47 0.0 0.0 0.00 0.00 0.00 95 1015.9
20260508091617 48 0.0 0.0 0.00 0.00 0.00 94 1015.9
20260508091137 48 0.0 0.0 0.00 0.00 0.00 94 1015.7
20260508090617 48 0.0 0.0 0.00 0.00 0.00 94 1015.8
20260508090117 48 0.0 0.0 0.00 0.00 0.00 94 1015.7
20260508085618 48 0.0 0.0 0.00 0.00 0.00 94 1015.7
20260508085158 48 0.0 0.0 0.00 0.00 0.00 94 1015.7
20260508084618 48 0.0 0.0 0.00 0.00 0.00 94 1015.6
20260508084117 48 0.0 0.0 0.00 0.00 0.00 94 1015.5
20260508083617 48 0.0 0.0 0.00 0.00 0.00 94 1015.6
20260508083137 48 0.0 0.0 0.00 0.00 0.00 94 1015.5
20260508082617 48 0.0 0.0 0.00 0.00 0.00 94 1015.5
20260508082117 48 0.0 0.0 0.00 0.00 0.00 93 1015.6
20260508081617 48 0.0 0.0 0.00 0.00 0.00 94 1015.4
20260508081200 48 0.0 0.0 0.00 0.00 0.00 94 1015.5
20260508080618 49 0.0 0.0 0.00 0.00 0.00 93 1015.4
20260508080117 49 0.0 0.0 0.00 0.00 0.00 93 1015.5
20260508075617 49 0.0 0.0 0.00 0.00 0.00 93 1015.6
20260508075117 49 0.0 0.0 0.00 0.00 0.00 93 1015.6
20260508074617 49 0.0 0.0 0.00 0.00 0.00 92 1015.6
20260508074117 49 0.0 0.0 0.00 0.00 0.00 91 1015.6
20260508073637 49 0.0 0.0 0.00 0.00 0.00 90 1015.7
20260508073117 50 0.0 0.0 0.00 0.00 0.00 90 1015.7
20260508072638 50 0.0 0.0 0.00 0.00 0.00 89 1015.7
20260508072118 50 0.0 0.0 0.00 0.00 0.00 89 1015.5
20260508071618 51 0.0 0.0 0.00 0.00 0.00 88 1015.5
20260508071137 51 0.0 0.0 0.00 0.00 0.00 88 1015.6
20260508070617 51 0.0 0.0 0.00 0.00 0.00 88 1015.7
20260508070137 51 0.0 0.0 0.00 0.00 0.00 88 1015.5
20260508065617 51 0.0 0.0 0.00 0.00 0.00 87 1015.5
20260508065117 51 0.0 0.0 0.00 0.00 0.00 87 1015.7
20260508064616 51 0.0 0.0 0.00 0.00 0.00 87 1015.6
20260508064118 51 0.0 0.0 0.00 0.00 0.00 86 1015.6
20260508063618 52 0.0 0.0 0.00 0.00 0.00 86 1015.7
20260508063117 52 0.0 0.0 0.00 0.00 0.00 86 1015.6
20260508062617 51 0.0 0.0 0.00 0.00 0.00 86 1015.6
20260508062117 51 0.0 0.0 0.00 0.00 0.00 86 1015.5
20260508061617 51 0.0 0.0 0.00 0.00 0.00 88 1015.6
20260508061117 51 0.0 0.0 0.00 0.00 0.00 88 1015.7
20260508060657 50 0.0 0.0 0.00 0.00 0.00 88 1015.6
20260508060117 50 0.0 0.0 0.00 0.00 0.00 87 1015.6
20260508055617 51 0.0 0.0 0.00 0.00 0.00 87 1015.7
20260508055117 51 0.0 0.0 0.00 0.00 0.00 87 1015.7
20260508054658 51 0.0 0.0 0.00 0.00 0.00 86 1015.7
20260508054117 51 0.0 0.0 0.00 0.00 0.00 86 1015.7
20260508053637 52 0.0 0.0 0.00 0.00 0.00 85 1015.7
20260508053137 52 0.0 0.0 0.00 0.00 0.00 84 1015.7
20260508052617 52 0.0 0.0 0.00 0.00 0.00 83 1015.6
20260508052117 52 0.0 0.0 0.00 0.00 0.00 84 1015.6
20260508051617 52 0.0 0.0 0.00 0.00 0.00 84 1015.7
20260508051116 52 0.0 0.0 0.00 0.00 0.00 84 1015.7
20260508050618 52 0.0 0.0 0.00 0.00 0.00 84 1015.7
20260508050118 52 0.0 0.0 0.00 0.00 0.00 83 1015.7
20260508045617 53 0.0 0.0 0.00 0.00 0.00 82 1015.8
20260508045157 53 0.0 0.0 0.00 0.00 0.00 82 1015.7
20260508044617 53 0.0 0.0 0.00 0.00 0.00 81 1015.8
20260508044137 53 0.0 0.0 0.00 0.00 0.00 81 1015.7
20260508043617 54 0.0 0.0 0.00 0.00 0.00 80 1015.6
20260508043117 54 0.0 0.0 0.00 0.00 0.00 80 1015.8
20260508042617 54 0.0 0.0 0.00 0.00 0.00 79 1015.7
20260508042117 54 0.0 0.0 0.00 0.00 0.00 79 1015.9
20260508041618 55 0.0 0.0 0.00 0.00 0.00 78 1015.7
20260508041117 55 0.0 0.0 0.00 0.00 0.00 77 1015.8
20260508040617 55 0.0 0.0 0.00 0.00 0.00 75 1015.8
20260508040117 56 0.0 0.0 0.00 0.00 0.00 75 1015.6
20260508035617 56 0.0 0.0 0.00 0.00 0.00 74 1015.6
20260508035117 56 0.0 0.0 0.00 0.00 0.00 74 1015.6
20260508034617 56 0.0 0.0 0.00 0.00 0.00 74 1015.6
20260508034117 56 0.0 0.0 0.00 0.00 0.00 75 1015.6
20260508033617 56 0.0 0.0 0.00 0.00 0.00 73 1015.5
20260508033117 57 0.0 0.0 0.00 0.00 0.00 72 1015.5
20260508032618 58 0.0 0.0 0.00 0.00 0.00 70 1015.5
20260508032117 58 0.0 0.0 0.00 0.00 0.00 70 1015.5
20260508031617 59 0.0 0.0 0.00 0.00 0.00 69 1015.5
20260508031117 59 0.0 0.0 0.00 0.00 0.00 68 1015.5
20260508030617 59 0.0 0.0 0.00 0.00 0.00 67 1015.5
20260508030117 60 0.0 0.0 0.00 0.00 0.00 66 1015.4
20260508025617 60 0.0 0.0 0.00 0.00 0.00 64 1015.4
20260508025118 60 0.0 0.0 0.00 0.00 0.00 63 1015.4
20260508024617 61 0.0 0.0 0.00 0.00 0.00 62 1015.5
20260508024118 61 0.0 0.0 0.00 0.00 0.00 62 1015.6
20260508023618 61 0.0 0.0 0.00 0.00 0.00 61 1015.5
20260508023117 61 0.0 0.0 0.00 0.00 0.00 61 1015.7
20260508022637 61 0.0 0.0 0.00 0.00 0.00 61 1015.5
20260508022137 62 0.0 0.0 0.00 0.00 0.00 61 1015.5
20260508021637 62 0.0 0.0 0.00 0.00 0.00 60 1015.6
20260508021117 62 0.0 0.0 0.00 0.00 0.00 59 1015.6
20260508020656 62 60 0.9 1.7 0.00 0.00 0.00 59 1015.5
20260508020118 62 299 0.9 2.6 0.00 0.00 0.00 59 1015.8
20260508015638 63 263 0.9 2.6 0.00 0.00 0.00 58 1015.7
20260508015118 63 0.0 0.0 0.00 0.00 0.00 57 1015.6
20260508014617 63 91 0.0 0.9 0.00 0.00 0.00 58 1015.7
20260508014137 63 105 0.0 0.9 0.00 0.00 0.00 56 1015.7
20260508013617 64 114 0.9 1.7 0.00 0.00 0.00 56 1015.7
20260508013117 64 74 0.0 1.7 0.00 0.00 0.00 56 1015.7
20260508012617 64 277 0.0 1.7 0.00 0.00 0.00 55 1015.7
20260508012117 64 87 0.0 1.7 0.00 0.00 0.00 55 1015.7
20260508011618 64 88 0.9 2.6 0.00 0.00 0.00 55 1015.8
20260508011118 65 80 0.9 1.7 0.00 0.00 0.00 54 1015.9
20260508010617 63 0.0 0.0 0.00 0.00 0.00 57 1015.9
20260508010157 64 347 1.7 2.6 0.00 0.00 0.00 56 1016.0
20260508005617 65 87 0.0 0.9 0.00 0.00 0.00 54 1016.1
20260508005117 64 89 0.0 0.9 0.00 0.00 0.00 56 1016.1
20260508004617 64 0.0 0.0 0.00 0.00 0.00 57 1016.0
20260508004117 64 92 0.0 0.9 0.00 0.00 0.00 56 1016.1
20260508003617 64 0.0 0.0 0.00 0.00 0.00 56 1016.2
20260508003117 64 84 0.9 1.7 0.00 0.00 0.00 56 1016.2
20260508002617 64 80 0.9 1.7 0.00 0.00 0.00 56 1016.4
20260508002117 64 0.0 0.0 0.00 0.00 0.00 55 1016.4
20260508001637 64 92 0.9 1.7 0.00 0.00 0.00 56 1016.4
20260508001117 64 50 1.7 3.5 0.00 0.00 0.00 55 1016.3
20260508000617 63 62 1.7 2.6 0.00 0.00 0.00 56 1016.4
20260508000117 63 73 2.6 5.2 0.00 0.00 0.00 56 1016.3
20260507235617 64 82 0.9 2.6 0.00 0.00 0.00 56 1016.4
20260507235117 64 39 1.7 3.5 0.00 0.00 0.00 55 1016.3
20260507234617 66 73 0.0 0.9 0.00 0.00 0.00 54 1016.2
20260507234117 65 93 0.0 0.9 0.00 0.00 0.00 54 1016.4
20260507233617 64 0.0 0.0 0.00 0.00 0.00 56 1016.3
20260507233137 64 330 3.5 6.1 0.00 0.00 0.00 54 1016.5
20260507232617 64 77 1.7 3.5 0.00 0.00 0.00 55 1016.4
20260507232117 65 316 0.9 2.6 0.00 0.00 0.00 54 1016.4